This is the latest recevied weather packets stored in our database for station/object KE4BFX. If no packets are shown the sender has not sent any weather packets the latest 10 day(s).
| Time | Temp. | Humidity | Pressure | Rain* | Wind** | Luminosity | Snow |
|---|---|---|---|---|---|---|---|
| 1777399789 | 28.33° C | 72% | 1021.5 hPa | 0 mm | - | 946 W/m² | - |
| 1777394989 | 27.78° C | 73% | 1021.5 hPa | 0 mm | - | 946 W/m² | - |
| 1777393789 | 27.78° C | 74% | 1021.5 hPa | 0 mm | - | 900 W/m² | - |
| 1777393189 | 27.22° C | 76% | 1021.5 hPa | 0 mm | - | 888 W/m² | - |
| 1777391990 | 26.67° C | 78% | 1021.5 hPa | 0 mm | - | 287 W/m² | - |
| 1777391389 | 26.11° C | 78% | 1021.5 hPa | 0 mm | - | 320 W/m² | - |
| 1777387789 | 24.44° C | 83% | 1021.5 hPa | 0 mm | - | 172 W/m² | - |
| 1777386590 | 24.44° C | 86% | 1021.5 hPa | 0 mm | - | 287 W/m² | - |
| 1777385990 | 23.89° C | 88% | 1021.5 hPa | 0 mm | - | 287 W/m² | - |
| 1777385390 | 23.33° C | 90% | 1021.5 hPa | 0 mm | - | 519 W/m² | - |
| 1777383589 | 22.78° C | 92% | 1021.5 hPa | 0 mm | - | 380 W/m² | - |
| 1777381189 | 21.11° C | 91% | 1021.5 hPa | 0 mm | - | 258 W/m² | - |
| 1777378789 | 19.44° C | 91% | 1021.5 hPa | 0 mm | - | 118 W/m² | - |
| 1777375790 | 18.89° C | 90% | 1021.5 hPa | 0 mm | - | 7 W/m² | - |
| 1777370390 | 19.44° C | 90% | 1021.5 hPa | 0 mm | - | 0 W/m² | - |
| 1777364390 | 20° C | 90% | 1021.5 hPa | 0 mm | - | 0 W/m² | - |
| 1777360190 | 21.11° C | 90% | 1021.5 hPa | 0 mm | - | 0 W/m² | - |
| 1777354790 | 21.67° C | 90% | 1021.5 hPa | 0 mm | - | 0 W/m² | - |
| 1777354190 | 21.67° C | 90% | 1021.5 hPa | 0 mm | - | 0 W/m² | - |
| 1777351790 | 21.67° C | 89% | 1021.5 hPa | 0 mm | - | 0 W/m² | - |
| 1777350590 | 21.67° C | 89% | 1021.5 hPa | 0 mm | - | 0 W/m² | - |
| 1777340390 | 22.22° C | 86% | 1021.5 hPa | 0 mm | - | 0 W/m² | - |
| 1777338590 | 22.78° C | 86% | 1021.5 hPa | 0 mm | - | 0 W/m² | - |
| 1777336792 | 23.33° C | 84% | 1021.5 hPa | 0 mm | - | 0 W/m² | - |
| 1777335590 | 23.33° C | 83% | 1021.5 hPa | 0 mm | - | 7 W/m² | - |
* Rain latest hour (hover to see other rain measurements)
** Current wind speed in m/s (hover to see current wind gust speed)